SCP
0 0 0 0 0 0 0 0 0 0 0 0 0 0 0 0 0 0 0 0 0 0 0 0 0 0 0 0 0 0 0 0 0 0 0 0 0 0 0 0 0 0 0 0
0 0 0 0 0 0 0 0 0 0 0 0 0 0 0 -0 0 0 0 0 -0 -0 0 0 0 0 0 0 0 0 0 0 0 0 0 0 0 0 0 0 0 0 0 0
0 0 0 0 0 0 0 0 0 0 0 0 0 0 0 0 0 0 0 0 0 0 0 0 0 0 0 0 0 0 0 0 0 0 0 0 0 0 0 0 0 -0 -0 -0
0 0 0 0 0 0 0 0 0 0 0 0 0 0 0 0 0 0 0 0 0 0 0 0 0 0 0 0 0 0 0 0 0 0 0 0 0 0 0 0 0 0 -0 -0
0 0 0 0 0 0 0 0 0 0 0 0 0 0 0 0 0 0 0 0 0 0 0 0 0 0 0 0 0 0 0 0 0 0 0 0 0 0 0 0 0 0 0 0
0 0 0 0 0 0 0 0 0 0 0 0 0 0 0 0 0 0 0 0 0 0 0 0 0 0 0 0 0 0 0 0 0 0 0 0 0 0 0 0 0 0 0 0
0 0 0 0 0 0 0 0 0 0 0 0 0 0 0 0 0 0 0 0 0 0 0 0 0 0 0 0 0 0 0 0 0 0 0 0 0 0 0 0 0 0 0 0
0 0 0 0 0 0 0 0 0 0 0 0 0 0 0 0 0 0 0 0 0 0 0 0 0 0 0 0 0 0 0 0 0 0 0 0 0 0 0 0 0 0 0 0
0 0 0 0 0 0 0 0 0 0 0 0 0 0 0 0 0 0 0 0 0 0 0 0 0 0 0 0 0 0 0 0 0 0 0 0 0 0 0 0 0 0 0 0
0 0 0 0 0 0 0 0 0 0 0 0 0 0 0 0 0 0 0 0 0 0 0 0 0 0 0 0 0 0 0 0 0 0 0 0 0 0 0 0 0 0 0 0
0 0 0 0 0 0 0 0 0 0 0 0 0 0 0 0 0 0 0 0 0 0 0 0 0 0 0 0 0 0 0 0 0 0 0 0 0 0 0 0 0 0 0 0
0 0 0 0 0 0 0 0 0 0 0 0 0 0 0 0 0 0 0 0 0 0 0 0 0 0 0 0 0 0 0 0 0 0 0 0 0 0 0 0 0 0 0 0
0 0 0 0 0 0 0 0 0 0 0 0 0 0 0 0 0 0 0 0 0 0 0 0 0 0 0 0 0 0 0 0 0 0 0 0 0 0 0 0 0 0 0 0
0 0 0 0 0 0 0 0 0 0 0 0 0 0 0 0 0 0 0 0 0 0 0 0 0 0 0 0 0 0 0 0 0 0 0 0 0 0 0 0 0 0 0 0
0 0 0 0 0 0 0 0 0 0 0 0 0 0 0 0 0 0 0 0 0 0 0 0 0 0 0 0 0 0 0 0 0 0 0 0 0 0 0 0 0 0 0 0
0 0 0 0 0 0 0 0 0 0 0 0 0 0 0 0 0 0 0 0 0 0 0 0 0 0 0 0 0 0 -0 -0 -0 -0 0 -0 0 0 0 0 0 0 0 0
0 0 0 0 0 0 0 0 0 0 0 0 0 0 0 0 0 0 0 0 0 0 0 0 0 0 0 0 0 0 0 0 0 0 0 0 0 0 0 0 0 0 0 0
0 0 0 0 0 0 0 0 0 0 0 0 0 0 0 0 0 0 0 0 0 0 0 0 0 0 0 0 0 0 0 0 0 -0 -0 0 -0 -0 0 0 0 0 0 0
0 0 0 0 0 0 -0 0 0 0 0 0 0 0 0 0 0 0 0 0 0 0 0 0 0 0 0 0 0 0 0 -0 -0 -0 0 0 0 0 0 0 0 0 0 0
0 0 0 0 0 0 0 0 0 0 0 0 0 0 0 0 0 0 0 0 0 0 0 0 0 0 0 0 0 0 0 0 0 0 -0 0 0 0 0 0 0 0 0 0
0 0 0 0 0 0 0 0 0 0 0 0 0 0 0 0 0 0 0 0 0 0 0 0 0 0 0 0 0 0 0 0 0 0 0 0 0 0 0 0 0 0 0 0
0 0 0 0 0 0 0 0 0 0 0 0 0 0 0 0 0 0 0 0 0 0 0 0 0 0 0 0 0 0 0 0 0 0 0 0 0 0 0 0 0 0 0 0
0 0 0 0 0 0 0 0 0 0 0 0 0 0 0 0 0 0 0 0 0 0 0 0 0 0 0 0 0 0 0 0 0 0 0 0 0 0 0 0 0 0 0 0
0 0 0 0 0 0 0 0 0 0 0 0 0 0 0 0 0 0 0 0 0 0 0 0 0 0 0 0 0 0 0 0 0 0 0 0 0 0 0 0 0 0 0 0
0 0 0 0 0 0 0 0 0 0 0 0 0 -0 0 0 0 0 0 0 0 0 0 0 0 -0 0 0 0 0 0 0 0 0 0 0 0 0 0 0 0 0 0 0
0 0 0 0 0 0 0 0 0 0 0 0 0 0 0 -0 0 0 0 0 0 0 0 0 0 0 0 0 0 0 0 0 0 0 0 0 0 0 0 0 0 -0 0 -0
Wind_Speed_500mb
6 9 2 7 4 5 3 7 13 11 9 11 16 28 47 60 39 42 42 31 35 38 35 26 25 20 14 16 21 27 31 29 31 30 34 40 52 52 53 58 64 75 94 109
9 3 8 7 5 4 9 10 12 12 4 9 19 45 47 31 17 21 19 31 32 29 27 20 23 16 17 21 23 28 35 37 38 39 38 40 44 45 48 54 64 69 80 102
6 1 12 6 3 6 8 9 4 10 14 4 21 20 12 9 11 23 29 23 22 26 28 32 31 29 26 21 27 37 45 51 58 56 56 58 59 65 67 68 68 65 63 74
5 4 9 6 8 9 7 7 3 11 12 3 12 12 15 3 18 14 29 17 21 40 33 25 21 25 30 43 52 56 72 71 67 67 72 78 82 87 89 84 81 76 67 68
2 11 7 7 7 9 8 2 6 2 5 9 10 5 16 6 14 19 15 17 33 46 37 39 42 42 53 64 63 80 79 78 84 86 85 82 88 97 101 104 99 91 80 63
9 2 7 7 3 3 5 6 8 8 7 5 9 10 11 9 13 8 9 23 51 56 57 52 52 64 81 83 92 88 88 86 86 93 98 99 101 96 97 100 106 108 87 83
4 7 3 5 4 5 5 11 9 12 7 11 9 4 25 17 16 11 15 46 47 57 52 56 74 98 100 96 101 99 93 97 88 100 109 113 114 103 103 101 103 104 88 84
6 10 11 7 7 10 6 10 9 11 7 12 3 15 13 15 15 23 40 39 37 51 59 78 95 98 97 97 97 97 99 105 96 102 110 112 103 106 105 103 101 102 92 86
7 9 4 4 4 7 8 5 6 6 2 6 7 15 22 27 18 12 23 25 55 75 81 87 95 92 93 91 94 96 95 90 95 97 103 99 94 92 96 97 96 97 91 86
7 6 2 1 4 9 6 13 8 6 7 13 12 13 21 11 14 16 14 31 64 77 83 89 89 87 86 95 97 90 86 99 95 86 81 78 77 81 90 91 87 88 90 82
8 6 4 2 12 15 6 6 6 6 8 8 9 17 17 17 13 17 15 44 65 78 84 86 90 87 83 84 92 87 82 83 89 87 82 81 81 83 83 88 89 83 79 87
11 8 7 17 1 2 7 12 13 8 11 8 5 24 8 13 11 7 42 67 82 82 89 96 89 82 93 93 88 78 78 80 82 81 80 83 80 83 83 83 86 82 83 80
14 3 4 14 8 4 8 10 9 5 5 19 8 21 6 4 29 64 51 69 84 86 89 85 82 88 94 89 83 77 76 72 71 71 71 74 76 77 79 82 82 83 78 76
18 8 13 13 9 7 10 11 19 19 7 20 32 64 63 49 47 51 67 74 81 82 82 78 83 90 89 84 81 81 75 68 67 66 68 69 69 72 77 77 78 76 69 78
8 10 5 7 10 9 22 23 25 34 45 20 70 35 57 54 54 57 73 75 70 79 77 78 90 86 85 85 81 76 72 66 59 56 53 54 54 51 57 62 67 70 63 80
5 6 5 9 9 7 22 32 40 48 47 44 60 70 55 83 77 50 59 62 65 75 79 92 86 84 81 78 74 73 67 60 54 46 50 49 43 37 52 58 58 62 67 80
12 9 5 12 8 16 19 26 40 13 15 23 28 35 16 16 20 39 54 75 66 75 81 89 84 77 74 68 67 67 62 55 48 38 36 24 20 9 41 60 65 60 73 81
12 11 4 7 8 8 8 3 7 23 20 37 25 23 24 29 45 65 69 36 68 67 83 78 74 71 66 62 60 54 49 43 39 29 24 11 8 22 42 54 62 62 74 78
9 9 5 5 6 20 19 7 14 16 17 35 41 38 37 45 39 39 5 56 54 62 69 65 65 62 60 56 52 47 43 37 27 20 13 3 17 33 50 57 63 69 66 67
12 4 7 7 7 15 10 6 15 10 11 15 28 22 15 5 10 8 48 51 51 53 60 60 58 56 54 51 48 44 40 35 29 21 15 7 13 34 47 58 66 66 60 60
12 5 22 5 8 21 26 13 11 8 12 16 42 40 22 9 13 48 45 38 37 43 54 56 56 55 51 45 44 41 36 36 27 22 17 21 20 29 39 47 52 54 59 61
24 23 11 8 6 24 31 15 16 12 8 19 31 34 29 34 45 45 31 28 30 35 49 60 62 57 53 47 42 39 38 31 27 25 29 32 34 38 48 50 51 56 56 59
8 17 15 27 20 5 53 18 57 11 10 14 22 21 32 45 50 34 24 20 19 20 34 46 63 66 56 55 50 43 37 32 38 40 43 44 42 45 52 62 65 66 62 58
11 15 8 5 18 43 43 63 62 46 53 41 39 42 40 46 31 25 16 12 9 7 20 32 45 60 73 59 56 50 43 38 42 46 51 52 53 52 52 54 57 64 74 80
12 27 12 15 20 38 61 65 83 77 72 71 64 51 36 28 23 17 10 8 7 7 4 15 26 37 47 60 69 58 48 47 50 53 55 59 62 64 68 72 72 73 73 72
19 16 15 18 35 39 48 46 59 55 56 50 37 36 29 29 22 14 9 8 8 10 9 2 11 21 27 32 39 51 56 58 64 67 66 67 70 72 74 75 75 68 62 56
Wind_Direction_500mb
38 63 173 158 117 120 191 246 248 260 276 318 267 282 288 294 291 278 275 286 297 306 310 311 319 333 302 273 280 281 282 283 289 291 290 287 273 274 266 263 258 252 244 244
34 199 177 134 134 175 234 258 273 286 297 322 302 295 280 282 255 233 274 292 298 312 310 300 294 278 270 267 266 263 263 273 277 283 280 278 282 279 282 275 267 259 267 232
156 128 133 129 220 244 227 209 251 238 328 312 326 309 316 327 273 263 271 291 300 308 303 293 274 257 257 276 285 289 288 280 279 278 275 273 271 269 268 265 265 276 270 265
230 148 167 177 235 166 280 174 300 313 17 295 55 286 295 276 290 263 277 283 310 313 297 260 254 261 275 285 290 301 302 289 280 276 279 281 275 273 268 264 266 264 268 263
317 169 188 217 227 184 234 342 293 267 101 39 328 78 268 314 277 272 265 268 303 324 267 260 257 272 290 295 292 296 302 291 282 284 285 290 285 276 269 269 264 263 259 259
245 281 194 209 149 234 334 339 58 55 85 352 218 144 261 232 213 243 267 311 314 301 285 276 281 290 299 299 299 300 294 292 279 281 282 285 288 282 274 263 263 261 256 253
238 200 184 174 124 39 75 45 338 342 0 230 162 55 249 257 247 241 273 296 310 316 300 281 300 309 306 303 303 303 299 296 283 276 284 286 286 279 274 267 260 258 251 244
130 309 183 182 203 161 90 116 151 262 281 282 313 234 246 217 262 268 272 295 299 309 306 297 303 305 306 304 304 302 299 296 288 285 284 284 279 276 270 265 261 255 249 241
129 282 89 215 176 132 136 130 128 90 158 349 245 280 284 269 261 221 270 286 306 309 308 307 306 302 304 302 303 300 294 286 283 281 280 278 270 265 262 260 258 254 247 240
173 322 33 87 97 48 117 146 70 16 308 291 275 271 238 252 245 277 285 300 306 303 306 306 305 303 306 309 306 300 291 290 286 280 277 268 263 260 258 256 254 252 242 231
130 120 278 38 202 175 134 165 114 127 168 218 296 274 215 223 219 255 276 304 305 304 306 309 307 310 309 305 311 307 300 293 289 284 276 270 265 259 253 253 249 241 240 235
186 147 232 221 66 101 150 181 153 149 235 238 216 270 189 211 197 269 312 311 311 306 309 314 309 310 317 320 313 302 299 297 292 288 283 277 271 265 261 251 248 244 239 233
183 235 352 338 3 40 211 186 179 118 98 218 165 264 201 241 306 312 307 308 306 308 313 310 314 318 322 316 308 307 307 304 298 292 286 281 273 264 257 251 243 237 233 222
146 173 190 200 191 135 204 195 204 195 177 262 227 272 279 293 298 306 308 305 305 309 312 313 317 324 320 312 314 317 315 311 308 302 295 286 275 264 255 248 240 230 229 213
145 217 195 274 237 221 243 241 222 216 228 236 271 251 278 291 296 299 300 300 308 314 317 320 328 323 320 323 324 324 319 320 317 309 305 298 289 267 255 241 226 220 218 208
188 262 92 285 298 276 265 249 244 238 245 253 261 277 268 273 282 289 295 309 315 318 322 329 330 328 327 330 328 328 327 326 324 316 312 305 299 270 234 224 202 204 202 203
170 150 93 268 332 321 291 231 229 184 206 218 231 248 267 270 281 285 301 314 318 320 328 333 333 331 334 336 336 333 332 332 331 328 316 304 317 255 189 185 184 191 192 202
160 131 141 267 355 274 269 214 192 199 234 213 252 265 261 270 283 296 307 320 327 333 337 338 338 342 344 344 344 341 343 342 340 332 321 307 195 169 171 172 176 184 188 184
168 138 153 214 209 305 291 168 169 174 267 213 224 251 263 280 305 307 224 336 334 349 339 342 346 351 352 353 353 354 358 1 4 8 360 358 163 160 166 170 172 183 184 177
188 17 180 121 193 241 236 175 144 164 287 195 192 231 244 320 327 275 323 333 349 355 352 352 356 0 1 2 4 9 13 22 26 33 45 81 152 165 165 171 173 174 175 173
175 171 213 194 246 282 245 183 169 94 243 183 199 218 199 198 250 309 318 337 1 4 5 9 11 12 6 9 15 20 23 32 29 46 79 112 134 145 152 154 157 160 157 153
175 172 189 150 196 275 163 127 193 210 184 195 210 222 233 270 300 309 316 345 3 16 19 26 24 20 18 21 28 33 36 47 55 73 86 100 114 126 132 141 139 141 144 142
217 192 181 190 208 244 187 220 215 202 206 214 236 253 287 292 294 295 311 353 5 19 27 37 39 35 30 31 34 42 46 55 74 82 90 97 106 115 122 126 133 136 137 138
245 182 218 121 230 243 241 241 246 240 245 265 272 294 296 288 273 279 303 342 355 358 35 39 44 46 43 41 42 47 55 67 79 87 95 102 110 114 118 122 126 133 138 137
185 156 182 258 285 290 274 256 250 249 250 262 270 276 276 256 251 263 290 319 320 262 359 37 41 49 54 52 55 54 59 70 81 89 93 98 104 110 115 114 114 113 114 118
180 175 192 229 217 224 256 267 261 235 247 247 251 243 242 237 246 257 273 291 292 255 228 38 43 51 49 58 65 67 66 75 87 90 91 95 100 104 108 111 112 110 109 111
Wind_Speed_850mb
6 9 2 7 4 5 3 7 13 11 9 11 16 28 47 60 39 42 42 31 35 38 35 26 25 20 14 16 21 27 31 29 31 30 34 40 52 52 53 58 64 75 94 109
9 3 8 7 5 4 9 10 12 12 4 9 19 45 47 31 17 21 19 31 32 29 27 20 23 16 17 21 23 28 35 37 38 39 38 40 44 45 48 54 64 69 80 102
6 1 12 6 3 6 8 9 4 10 14 4 21 20 12 9 11 23 29 23 22 26 28 32 31 29 26 21 27 37 45 51 58 56 56 58 59 65 67 68 68 65 63 74
5 4 9 6 8 9 7 7 3 11 12 3 12 12 15 3 18 14 29 17 21 40 33 25 21 25 30 43 52 56 72 71 67 67 72 78 82 87 89 84 81 76 67 68
2 11 7 7 7 9 8 2 6 2 5 9 10 5 16 6 14 19 15 17 33 46 37 39 42 42 53 64 63 80 79 78 84 86 85 82 88 97 101 104 99 91 80 63
9 2 7 7 3 3 5 6 8 8 7 5 9 10 11 9 13 8 9 23 51 56 57 52 52 64 81 83 92 88 88 86 86 93 98 99 101 96 97 100 106 108 87 83
4 7 3 5 4 5 5 11 9 12 7 11 9 4 25 17 16 11 15 46 47 57 52 56 74 98 100 96 101 99 93 97 88 100 109 113 114 103 103 101 103 104 88 84
6 10 11 7 7 10 6 10 9 11 7 12 3 15 13 15 15 23 40 39 37 51 59 78 95 98 97 97 97 97 99 105 96 102 110 112 103 106 105 103 101 102 92 86
7 9 4 4 4 7 8 5 6 6 2 6 7 15 22 27 18 12 23 25 55 75 81 87 95 92 93 91 94 96 95 90 95 97 103 99 94 92 96 97 96 97 91 86
7 6 2 1 4 9 6 13 8 6 7 13 12 13 21 11 14 16 14 31 64 77 83 89 89 87 86 95 97 90 86 99 95 86 81 78 77 81 90 91 87 88 90 82
8 6 4 2 12 15 6 6 6 6 8 8 9 17 17 17 13 17 15 44 65 78 84 86 90 87 83 84 92 87 82 83 89 87 82 81 81 83 83 88 89 83 79 87
11 8 7 17 1 2 7 12 13 8 11 8 5 24 8 13 11 7 42 67 82 82 89 96 89 82 93 93 88 78 78 80 82 81 80 83 80 83 83 83 86 82 83 80
14 3 4 14 8 4 8 10 9 5 5 19 8 21 6 4 29 64 51 69 84 86 89 85 82 88 94 89 83 77 76 72 71 71 71 74 76 77 79 82 82 83 78 76
18 8 13 13 9 7 10 11 19 19 7 20 32 64 63 49 47 51 67 74 81 82 82 78 83 90 89 84 81 81 75 68 67 66 68 69 69 72 77 77 78 76 69 78
8 10 5 7 10 9 22 23 25 34 45 20 70 35 57 54 54 57 73 75 70 79 77 78 90 86 85 85 81 76 72 66 59 56 53 54 54 51 57 62 67 70 63 80
5 6 5 9 9 7 22 32 40 48 47 44 60 70 55 83 77 50 59 62 65 75 79 92 86 84 81 78 74 73 67 60 54 46 50 49 43 37 52 58 58 62 67 80
12 9 5 12 8 16 19 26 40 13 15 23 28 35 16 16 20 39 54 75 66 75 81 89 84 77 74 68 67 67 62 55 48 38 36 24 20 9 41 60 65 60 73 81
12 11 4 7 8 8 8 3 7 23 20 37 25 23 24 29 45 65 69 36 68 67 83 78 74 71 66 62 60 54 49 43 39 29 24 11 8 22 42 54 62 62 74 78
9 9 5 5 6 20 19 7 14 16 17 35 41 38 37 45 39 39 5 56 54 62 69 65 65 62 60 56 52 47 43 37 27 20 13 3 17 33 50 57 63 69 66 67
12 4 7 7 7 15 10 6 15 10 11 15 28 22 15 5 10 8 48 51 51 53 60 60 58 56 54 51 48 44 40 35 29 21 15 7 13 34 47 58 66 66 60 60
12 5 22 5 8 21 26 13 11 8 12 16 42 40 22 9 13 48 45 38 37 43 54 56 56 55 51 45 44 41 36 36 27 22 17 21 20 29 39 47 52 54 59 61
24 23 11 8 6 24 31 15 16 12 8 19 31 34 29 34 45 45 31 28 30 35 49 60 62 57 53 47 42 39 38 31 27 25 29 32 34 38 48 50 51 56 56 59
8 17 15 27 20 5 53 18 57 11 10 14 22 21 32 45 50 34 24 20 19 20 34 46 63 66 56 55 50 43 37 32 38 40 43 44 42 45 52 62 65 66 62 58
11 15 8 5 18 43 43 63 62 46 53 41 39 42 40 46 31 25 16 12 9 7 20 32 45 60 73 59 56 50 43 38 42 46 51 52 53 52 52 54 57 64 74 80
12 27 12 15 20 38 61 65 83 77 72 71 64 51 36 28 23 17 10 8 7 7 4 15 26 37 47 60 69 58 48 47 50 53 55 59 62 64 68 72 72 73 73 72
19 16 15 18 35 39 48 46 59 55 56 50 37 36 29 29 22 14 9 8 8 10 9 2 11 21 27 32 39 51 56 58 64 67 66 67 70 72 74 75 75 68 62 56
Wind_Direction_850mb
38 63 173 158 117 120 191 246 248 260 276 318 267 282 288 294 291 278 275 286 297 306 310 311 319 333 302 273 280 281 282 283 289 291 290 287 273 274 266 263 258 252 244 244
34 199 177 134 134 175 234 258 273 286 297 322 302 295 280 282 255 233 274 292 298 312 310 300 294 278 270 267 266 263 263 273 277 283 280 278 282 279 282 275 267 259 267 232
156 128 133 129 220 244 227 209 251 238 328 312 326 309 316 327 273 263 271 291 300 308 303 293 274 257 257 276 285 289 288 280 279 278 275 273 271 269 268 265 265 276 270 265
230 148 167 177 235 166 280 174 300 313 17 295 55 286 295 276 290 263 277 283 310 313 297 260 254 261 275 285 290 301 302 289 280 276 279 281 275 273 268 264 266 264 268 263
317 169 188 217 227 184 234 342 293 267 101 39 328 78 268 314 277 272 265 268 303 324 267 260 257 272 290 295 292 296 302 291 282 284 285 290 285 276 269 269 264 263 259 259
245 281 194 209 149 234 334 339 58 55 85 352 218 144 261 232 213 243 267 311 314 301 285 276 281 290 299 299 299 300 294 292 279 281 282 285 288 282 274 263 263 261 256 253
238 200 184 174 124 39 75 45 338 342 0 230 162 55 249 257 247 241 273 296 310 316 300 281 300 309 306 303 303 303 299 296 283 276 284 286 286 279 274 267 260 258 251 244
130 309 183 182 203 161 90 116 151 262 281 282 313 234 246 217 262 268 272 295 299 309 306 297 303 305 306 304 304 302 299 296 288 285 284 284 279 276 270 265 261 255 249 241
129 282 89 215 176 132 136 130 128 90 158 349 245 280 284 269 261 221 270 286 306 309 308 307 306 302 304 302 303 300 294 286 283 281 280 278 270 265 262 260 258 254 247 240
173 322 33 87 97 48 117 146 70 16 308 291 275 271 238 252 245 277 285 300 306 303 306 306 305 303 306 309 306 300 291 290 286 280 277 268 263 260 258 256 254 252 242 231
130 120 278 38 202 175 134 165 114 127 168 218 296 274 215 223 219 255 276 304 305 304 306 309 307 310 309 305 311 307 300 293 289 284 276 270 265 259 253 253 249 241 240 235
186 147 232 221 66 101 150 181 153 149 235 238 216 270 189 211 197 269 312 311 311 306 309 314 309 310 317 320 313 302 299 297 292 288 283 277 271 265 261 251 248 244 239 233
183 235 352 338 3 40 211 186 179 118 98 218 165 264 201 241 306 312 307 308 306 308 313 310 314 318 322 316 308 307 307 304 298 292 286 281 273 264 257 251 243 237 233 222
146 173 190 200 191 135 204 195 204 195 177 262 227 272 279 293 298 306 308 305 305 309 312 313 317 324 320 312 314 317 315 311 308 302 295 286 275 264 255 248 240 230 229 213
145 217 195 274 237 221 243 241 222 216 228 236 271 251 278 291 296 299 300 300 308 314 317 320 328 323 320 323 324 324 319 320 317 309 305 298 289 267 255 241 226 220 218 208
188 262 92 285 298 276 265 249 244 238 245 253 261 277 268 273 282 289 295 309 315 318 322 329 330 328 327 330 328 328 327 326 324 316 312 305 299 270 234 224 202 204 202 203
170 150 93 268 332 321 291 231 229 184 206 218 231 248 267 270 281 285 301 314 318 320 328 333 333 331 334 336 336 333 332 332 331 328 316 304 317 255 189 185 184 191 192 202
160 131 141 267 355 274 269 214 192 199 234 213 252 265 261 270 283 296 307 320 327 333 337 338 338 342 344 344 344 341 343 342 340 332 321 307 195 169 171 172 176 184 188 184
168 138 153 214 209 305 291 168 169 174 267 213 224 251 263 280 305 307 224 336 334 349 339 342 346 351 352 353 353 354 358 1 4 8 360 358 163 160 166 170 172 183 184 177
188 17 180 121 193 241 236 175 144 164 287 195 192 231 244 320 327 275 323 333 349 355 352 352 356 0 1 2 4 9 13 22 26 33 45 81 152 165 165 171 173 174 175 173
175 171 213 194 246 282 245 183 169 94 243 183 199 218 199 198 250 309 318 337 1 4 5 9 11 12 6 9 15 20 23 32 29 46 79 112 134 145 152 154 157 160 157 153
175 172 189 150 196 275 163 127 193 210 184 195 210 222 233 270 300 309 316 345 3 16 19 26 24 20 18 21 28 33 36 47 55 73 86 100 114 126 132 141 139 141 144 142
217 192 181 190 208 244 187 220 215 202 206 214 236 253 287 292 294 295 311 353 5 19 27 37 39 35 30 31 34 42 46 55 74 82 90 97 106 115 122 126 133 136 137 138
245 182 218 121 230 243 241 241 246 240 245 265 272 294 296 288 273 279 303 342 355 358 35 39 44 46 43 41 42 47 55 67 79 87 95 102 110 114 118 122 126 133 138 137
185 156 182 258 285 290 274 256 250 249 250 262 270 276 276 256 251 263 290 319 320 262 359 37 41 49 54 52 55 54 59 70 81 89 93 98 104 110 115 114 114 113 114 118
180 175 192 229 217 224 256 267 261 235 247 247 251 243 242 237 246 257 273 291 292 255 228 38 43 51 49 58 65 67 66 75 87 90 91 95 100 104 108 111 112 110 109 111